Regional Weather Roundup
Issued by NWS

Home | Current Version | Previous Version | Text Only | Print | Product List | Glossary Off
Versions: 1 2 3 4 5 6 7 8 9 10 11 12 13 14 15 16 17 18 19 20 21 22 23 24 25 26 27 28 29 30 31 32 33 34 35 36 37 38 39 40 41 42 43 44 45 46 47 48 49 50

000
ASUS43 KMKX 072221
RWRWI

WISCONSIN REGIONAL WEATHER ROUNDUP
NATIONAL WEATHER SERVICE MILWAUKEE/SULLIVAN WI
500 PM CDT TUE JUL 07 2015

NOTE: "FAIR" INDICATES FEW OR NO CLOUDS BELOW 12,000 FEET WITH NO
SIGNIFICANT WEATHER AND/OR OBSTRUCTIONS TO VISIBILITY.

WIZ001-002-006>008-014>016-023>028-072300-
NORTHWEST WISCONSIN

CITY           SKY/WX    TMP DP  RH WIND       PRES   REMARKS
SUPERIOR ARPT  SUNNY     72  47  40 SW3       30.09S
ASHLAND        SUNNY     70  45  40 CALM      30.12S
HAYWARD        SUNNY     69  43  38 N5        30.13S
SIREN          SUNNY     69  40  35 CALM      30.13S
CUMBERLAND     MOSUNNY   66  41  39 N7        30.13S
RICE LAKE      MOSUNNY   69  46  42 N8        30.14S
CHETEK         MOSUNNY   69  47  46 N7        30.12S
LADYSMITH      SUNNY     70  46  41 N9        30.13S
EAU CLAIRE     MOSUNNY   71  46  40 VRB7      30.10S
MENOMONIE      MOSUNNY   68  48  48 NW5       30.11F
NEW RICHMOND   MOSUNNY   67  47  47 N5        30.14S
OSCEOLA        PTSUNNY   70  48  45 N5        30.16S
$$

WIZ003>005-009-010-017-018-072300-
NORTH CENTRAL WISCONSIN

CITY           SKY/WX    TMP DP  RH WIND       PRES   REMARKS
MANITOWISH WTR SUNNY     65  44  47 N6        30.12S
ARBOR VITAE    MOSUNNY   65  45  47 NE6       30.12S
WOODRUFF       MOSUNNY   65  45  47 NE6       30.12S
RHINELANDER    MOSUNNY   68  45  43 VRB5      30.11S
EAGLE RIVER    SUNNY     66  43  42 NE8       30.11S
LAND O LAKES   SUNNY     65  42  42 N10       30.13R
PHILLIPS       SUNNY     67  45  46 N9        30.11S
TOMAHAWK       MOSUNNY   67  46  46 N7        30.11S
MEDFORD        MOSUNNY   67  46  46 N6        30.11R
MERRILL        MOSUNNY   68  48  48 N10       30.10S
$$

WIZ029-030-035-036-043>047-072300-
CENTRAL WISCONSIN

CITY           SKY/WX    TMP DP  RH WIND       PRES   REMARKS
WAUSAU         MOSUNNY   71  46  40 N9        30.08S
MOSINEE        MOSUNNY   70  48  46 N10       30.10S
MARSHFIELD     MOSUNNY   71  46  40 NE12      30.09S
STEVENS POINT  PTSUNNY   66  46  48 NE9       30.09S
WAUPACA        CLOUDY    73  47  39 NE9       30.08S
WAUTOMA        MOSUNNY   70  47  43 N8        30.08S
WISC RAPIDS    PTSUNNY   72  46  39 NE12      30.10S
CAMP DOUGLAS   PTSUNNY   68  52  56 N10       30.08F
$$

WIZ011>013-019>022-031-037>040-048>050-072300-
NORTHEAST WISCONSIN

CITY           SKY/WX    TMP DP  RH WIND       PRES   REMARKS
ANTIGO         PTSUNNY   66  48  52 N12       30.10S
SHAWANO        PTSUNNY   70  48  45 N10       30.08S
OCONTO         MOSUNNY   68  49  50 N10       30.06S
STURGEON BAY   SUNNY     64  48  55 N9        30.09S
GREEN BAY      MOSUNNY   70  48  45 N14G20    30.06F
MANITOWOC      CLOUDY    62  50  64 MISG      30.07R
APPLETON       PTSUNNY   70  46  43 N12       30.07S
CLINTONVILLE   PTSUNNY   70  43  37 N9        30.07S
OSHKOSH        PTSUNNY   69  48  47 NE13      30.06S
$$

WIZ032>034-041-042-053>061-072300-
SOUTHWEST WISCONSIN

CITY           SKY/WX    TMP DP  RH WIND       PRES   REMARKS
LA CROSSE      MOSUNNY   71  48  43 N10       30.09F
SPARTA         MOSUNNY   70  45  40 N7        30.10S
VIROQUA        SUNNY     67  49  52 NE9       30.10S
BOSCOBEL       CLOUDY    71  49  45 NE10      30.09S
PRAIRIE DU CHI PTSUNNY   69  47  45 NE10      30.09S
PLATTEVILLE    PTSUNNY   68  51  54 N8        30.09S
$$

WIZ056-057-062-063-064-067-068-072300-
SOUTH CENTRAL WISCONSIN

CITY           SKY/WX    TMP DP  RH WIND       PRES   REMARKS
REEDSBURG      MOSUNNY   67  48  50 N7        30.09R
BARABOO/DELLS  MOSUNNY   69  46  44 N3        30.09R
LONE ROCK      PTSUNNY   71  49  45 N6        30.09S
MINERAL POINT  PTSUNNY   68  46  45 N12       30.09S
MADISON        PTSUNNY   70  50  49 N9        30.07S
MIDDLETON      PTSUNNY   68  48  48 N6        30.09R
WATERTOWN      PTSUNNY   66  50  55 N9G16     30.07R
MONROE         PTSUNNY   68  52  56 N9        30.08R
JANESVILLE     MOSUNNY   72  52  49 N6        30.06R
$$

WIZ051-052-058>065-066-070>072-072300-
SOUTHEAST WISCONSIN

CITY           SKY/WX    TMP DP  RH WIND       PRES   REMARKS
MILWAUKEE      MOSUNNY   62  49  62 NE13G22   30.08R
WAUKESHA       PTSUNNY   64  48  55 NW8       30.07S
MILWAUKEE/TIMM MOSUNNY   63  46  55 NE9       30.08R
RACINE         SUNNY     63  49  60 NE14      30.09R
BURLINGTON     PTSUNNY   66  50  56 E7        30.06R
KENOSHA        SUNNY     64  51  62 NE13      30.08R
FOND DU LAC    SUNNY     69  49  48 NE9       30.07S
SHEBOYGAN      CLOUDY    62  50  64 E10       30.07R
WEST BEND      PTSUNNY   66  45  45 N8        30.07R
JUNEAU         MOSUNNY   67  49  52 N9        30.08S
$$

LSZ147-162-072300-
LAKE SUPERIOR

STATION/POSITION TIME  TEMP    WIND        PRES    WAVE
                       AIR SEA DIR/SP/G            HT/PER
                 (UTC) (F)     (DEG/KT/KT) (MB)    (FT/S)
W MID LAKE BUOY  2150   47 39  210/ 10/ 12 1019.5S   0
DEVILS ISLAND    2200   64     230/  5/  6 1019.3F
PORT WING        2100   67     290/  4/  7 1019.6
SAXON HARBOR     2100   66        CALM     1020.0S
$$

LMZ867-665-643>646-072300-
LAKE MICHIGAN

STATION/POSITION TIME  TEMP    WIND        PRES    WAVE
                       AIR SEA DIR/SP/G            HT/PER
                 (UTC) (F)     (DEG/KT/KT) (MB)    (FT/S)
CHAMBERS ISLAND  2100   64      20/ 11/ 12 1017.9R
S GREEN BAY BUOY 2200   67 68  360/ 10/ 14 1019.2S
N MID LAKE BUOY  2150   56 52   50/  4/  6 1017.6R   2/ 4
NORTHPORT PIER   2100   62     350/ 14/ 16 1017.6R
SISTER BAY       2114   67     360/ 15/ 19   N/A
ALGOMA LAKESHORE 2011           10/ 12/ 17   N/A
KEWAUNEE LAKESHO 2100   60      80/  3/  6 1017.5R
SHEBOYGAN LAKESH 2200   57      50/  7/  8 1018.8R
PORT WASHINGTON  2140   62      60/  6/  8 1019.0R
ATWATER BUOY     2200   59 59   40/ 12/ 14 1019.5R
MILWAUKEE LAKESH 2200   58      20/ 11/ 12   N/A
KENOSHA   LAKESH 2200   57      30/ 10/ 12 1018.3R
$$

TC  - TEMPERATURE IN CELSIUS
VSB - VISIBILITY IN STATUTE MILES
WCI - WIND CHILL INDEX
HX  - HEAT INDEX




USA.gov is the U.S. government's official web portal to all federal, state and local government web resources and services.